CAPE
555 866 2157 2150 2073 2423 2924 3225 3268 2870 2501 2755 2243 2150 1990 1925 2052 2318 2613 2555 2833 2947 2944 2865 2968 2708 2804 2926 3302 2924 2620 2381 2319 2320 2226 1866 1506 1871 2033 1682 2012 1649 2306
627 901 2301 2342 1969 2306 2625 3106 3272 3012 2304 2428 2350 2099 1871 1918 1985 2089 2243 2174 2402 2826 2488 2605 2470 2469 2185 2734 2999 3018 2975 2941 2208 1595 1747 1570 2168 2316 2150 2147 2019 2055 2336
722 1044 1458 2184 2112 1998 2474 2510 2917 2652 2435 2278 2263 2130 1744 1850 1896 1923 1914 2060 2115 2417 2560 2434 2465 2562 1999 2010 2113 2045 2231 2613 3141 1897 1559 1967 1296 2482 2331 2348 2562 2196 2129
719 961 1243 2101 2188 1855 2046 2452 2539 2156 1748 1906 2040 2127 1839 1745 1689 1764 1846 1950 2007 2047 2096 2385 2428 2443 2883 2502 1920 2261 2378 2463 2697 2203 1422 2120 2206 1824 2149 2456 2425 2037 2305
889 864 1233 2069 1960 1472 1855 2001 2344 2364 1578 1638 1577 1551 1701 1762 1668 1599 1619 1794 1953 1942 1875 2045 2384 2493 2678 2616 2788 2439 2258 2254 2062 1769 2187 2057 1531 2367 1573 2002 2054 1840 2078
867 772 1761 2167 1454 1330 1596 1723 1721 1732 1568 1549 1355 1325 1309 1331 1360 1575 1699 1789 1910 1907 1806 1623 1493 1530 1728 2046 2313 2377 2382 1998 1277 1654 2143 2166 1585 1686 1740 1528 1578 1746 1801
681 761 1340 2169 2058 1859 1299 1606 2071 1575 1496 1490 1443 1350 1282 1232 1183 1134 1107 1383 1480 1198 1325 1541 1275 1216 959 856 1004 1387 1976 1984 667 989 1271 1385 1822 1803 1565 1551 1522 1658 1628
754 697 902 1876 1930 2035 1300 1329 1645 1536 1357 1376 1422 1336 1342 1441 1758 1694 1267 1254 1212 876 780 921 1168 1267 944 920 768 1065 1038 1858 879 278 249 549 1047 1741 1671 1715 1602 1606 1596
882 789 815 931 1245 1297 1846 1632 1641 1452 1369 1362 1454 1364 1364 1599 1577 1469 1455 1445 1511 1501 1351 1287 1226 1074 991 911 1007 914 962 990 1488 645 49 109 49 1020 1800 2086 2321 1773 1715
950 1714 1492 935 956 1122 962 1470 1366 1464 1341 1427 1497 2020 2211 1735 1652 1605 1465 1298 1451 1337 1400 1342 1125 1095 1165 1217 1128 1293 1180 1271 1316 1049 604 117 94 688 1994 2031 2848 2642 2307
831 940 1792 1662 1001 1014 935 1027 1957 1654 1815 1892 2035 1924 1835 1179 1222 1249 1355 1283 1171 1389 1301 1071 827 1039 1052 1163 1224 1386 1494 1417 1625 961 432 301 57 967 1865 2121 2670 2652 2665
538 813 1220 1427 951 987 856 1363 1732 1404 1278 1653 2284 2194 2707 1769 1836 1342 1304 637 939 1267 1249 555 442 748 1140 990 1463 1117 1215 1357 1194 772 370 216 459 628 1635 1990 2543 2497 2839
542 694 825 1349 1903 1695 829 1232 1743 1671 1815 2072 2300 2052 1976 1769 1577 1382 2209 1173 215 1272 1295 261 327 545 814 864 593 863 1235 1177 739 578 408 273 502 620 1129 1473 2364 2491 2625
843 871 1006 1212 1709 2144 1711 1778 2076 2035 2119 2024 2464 1819 1683 1474 1423 1228 877 1454 1127 1344 639 742 1097 750 585 918 839 609 510 1048 625 578 708 601 723 623 854 887 1553 2302 2576
838 934 1081 1416 1586 1846 2103 1973 2236 2274 1848 1422 1135 1241 1389 1028 949 1236 1116 911 415 667 1099 1273 1138 560 344 325 524 677 683 755 866 662 688 777 886 1059 1003 1065 1139 1634 2543
841 911 971 1276 1410 1721 1953 2036 1842 1608 1031 1252 1112 1178 1369 1066 967 1255 937 500 475 405 245 285 1391 989 612 188 103 214 213 401 665 1052 807 803 953 1259 1670 1418 1277 1327 2229
882 884 954 1112 1162 1450 1567 1551 1161 844 961 1035 1027 1185 1318 1258 1256 1304 1003 962 703 551 181 142 594 848 923 973 558 379 550 860 774 1048 1149 998 924 1315 1739 1897 1934 2174 2159
1048 952 585 734 871 1159 1199 1138 863 954 1077 1090 948 1053 1314 1387 1488 1428 1256 1155 1041 793 511 417 961 1108 1161 1212 1010 1363 878 1024 1043 1061 1006 1172 971 970 1222 2056 2593 2567 2033
1071 994 829 708 706 810 974 983 908 1157 1317 1147 1169 1189 1439 1379 1514 1550 1376 1478 1265 822 631 419 721 620 1094 1299 995 895 1008 1077 957 697 817 1275 1261 1045 1137 1772 2641 2796 2403
1140 1081 873 645 783 912 865 1030 1041 1176 1546 1537 1523 1597 1559 1496 1678 1703 1496 1528 1173 868 813 650 689 795 902 795 290 355 741 935 1000 958 781 1007 1015 1148 980 1009 689 1124 2579
1344 1262 1083 939 1283 1059 879 735 905 1069 1435 1665 1703 1772 1693 1639 1640 1846 1586 1357 1221 1148 1336 1123 906 1183 1139 714 597 360 336 513 921 921 872 865 832 1092 1186 859 882 785 798
1230 1388 1378 1427 1491 1424 1137 1117 1065 1420 1576 1572 1805 1848 1697 1533 1659 1819 1677 1326 1320 1185 1554 1419 1275 1155 1062 715 982 651 429 675 738 866 1144 982 808 1002 1139 1235 1369 1293 1237
1051 1229 1440 1252 1639 1525 1766 1468 1496 1500 1542 1483 1422 1599 1698 1677 1618 1759 1769 1636 1502 1438 1787 1636 1308 1320 1864 1339 412 463 721 375 675 848 968 1106 1226 1071 971 1147 1371 1600 1645
908 1130 1209 1173 968 1449 1543 1394 1563 1661 1975 1645 1918 1453 2287 1782 1803 1601 1714 1656 1737 1498 1834 2012 1604 1432 1598 1665 1221 671 778 622 425 202 237 371 1003 1160 1174 1219 1221 1307 1473
666 1031 1231 1328 1042 924 892 796 1405 1760 2190 1910 2781 1989 2252 1691 1791 1873 1890 1824 1721 1625 1715 1789 1585 1743 1407 1644 1227 1442 919 1023 881 749 361 751 527 503 763 900 904 984 1152
1055 912 1218 1218 1056 593 386 671 950 1242 1436 1023 1907 2322 1852 1473 1418 1773 1911 1984 2123 2285 1856 1681 1676 1627 1572 1431 1458 1719 2017 1764 1426 1048 875 937 185 215 227 489 633 655 892
CIN
-32 -5 -0 -0 -0 -0 -0 -0 -0 -0 -0 -0 -0 -0 -1 -3 -0 -0 -0 -0 -0 -0 -0 -0 -0 -0 -0 -0 -0 -0 -0 -0 -0 -0 -0 -0 -4 -1 -0 -0 -1 -0 -0
-58 -15 -0 -0 -0 -0 -0 -0 -0 -0 -4 -0 -0 -0 -2 -2 -2 -8 -2 -0 -0 -0 -0 -0 -0 -0 -0 -0 -0 -0 -0 -0 -0 -10 -4 -3 -0 -0 -0 -0 -0 -0 -0
-47 -15 -0 -0 -0 -0 -0 -0 -0 -0 -0 -0 -0 -0 -2 -3 -3 -12 -9 -2 -0 -0 -0 -0 -0 -0 -1 -0 -0 -0 -0 -0 -0 -1 -12 -0 -6 -0 -0 -0 -0 -0 -0
-49 -23 -1 -0 -0 -0 -0 -0 -0 -0 -1 -1 -0 -0 -0 -1 -2 -7 -4 -0 -0 -0 -0 -0 -0 -0 -0 -0 -5 -0 -0 -0 -0 -0 -8 -0 -0 -0 -0 -0 -0 -0 -0
-28 -30 -15 -0 -0 -0 -0 -0 -0 -0 -0 -0 -0 -0 -0 -0 -0 -0 -1 -0 -0 -0 -0 -0 -0 -0 -0 -0 -0 -0 -0 -0 -7 -5 -0 -0 -0 -0 -9 -3 -0 -5 -0
-21 -28 -1 -0 -8 -6 -0 -0 -0 -0 -0 -0 -0 -1 -3 -4 -0 -0 -0 -0 -0 -0 -0 -0 -0 -0 -0 -0 -0 -0 -0 -8 -47 -7 -0 -0 -1 -4 -4 -17 -22 -11 -15
-29 -21 -5 -0 -0 -0 -5 -0 -0 -0 -0 -0 -0 -2 -1 -3 -5 -2 -1 -0 -0 -2 -0 -1 -5 -3 -7 -13 -12 -6 -0 -0 -42 -47 -28 -11 -0 -3 -11 -18 -22 -18 -22
-36 -24 -15 -0 -0 -0 -9 -1 -0 -0 -0 -1 -0 -1 -1 -0 -0 -0 -0 -0 -0 -6 -6 -2 -2 -3 -3 -3 -10 -6 -3 -0 -30 -96 -85 -59 -41 -5 -5 -7 -13 -18 -22
-7 -19 -25 -12 -0 -4 -0 -0 -0 -0 -0 -1 -0 -2 -1 -0 -0 -0 -0 -0 -0 -0 -2 -0 -3 -4 -3 -1 -1 -8 -6 -0 -0 -21 -117 -90 -184 -51 -0 -0 -0 -7 -16
-4 -0 -0 -17 -6 -5 -15 -0 -3 -0 -1 -0 -0 -0 -0 -1 -0 -0 -2 -5 -1 -0 -0 -1 -5 -6 -4 -2 -1 -0 -2 -2 -0 -0 -22 -67 -136 -61 -0 -0 -0 -0 -0
-14 -17 -0 -0 -13 -11 -12 -5 -0 -0 -0 -0 -0 -2 -3 -0 -0 -0 -1 -2 -1 -1 -0 -0 -2 -0 -0 -2 -0 -0 -0 -0 -0 -0 -21 -70 -115 -24 -0 -0 -0 -0 -0
-85 -49 -8 -6 -24 -13 -11 -0 -0 -0 -0 -0 -4 -2 -0 -0 -0 -1 -8 -12 -1 -0 -4 -8 -5 -2 -1 -0 -0 -0 -0 -0 -0 -0 -10 -72 -35 -31 -0 -0 -0 -0 -0
-106 -74 -56 -13 -0 -1 -25 -1 -0 -0 -0 -0 -0 -0 -0 -0 -0 -0 -0 -11 -54 -7 -1 -6 -3 -0 -0 -0 -0 -0 -0 -0 -0 -0 -4 -52 -30 -29 -7 -0 -0 -0 -0
-77 -67 -45 -28 -7 -0 -0 -0 -0 -0 -0 -0 -0 -0 -0 -0 -0 -0 -1 -4 -2 -2 -3 -0 -1 -0 -0 -0 -0 -0 -0 -0 -0 -0 -1 -38 -24 -30 -17 -17 -0 -0 -0
-99 -75 -51 -27 -11 -3 -0 -0 -0 -0 -0 -0 -0 -0 -0 -1 -4 -7 -3 -5 -21 -8 -6 -1 -2 -0 -0 -3 -0 -1 -1 -0 -1 -7 -0 -27 -19 -6 -18 -15 -13 -1 -0
-111 -96 -73 -46 -27 -1 -0 -0 -0 -2 -14 -4 -5 -1 -2 -6 -12 -7 -10 -26 -26 -29 -47 -35 -0 -0 -0 -10 -26 -27 -29 -19 -11 -1 -15 -8 -35 -13 -6 -16 -19 -15 -0
-112 -114 -108 -80 -65 -20 -12 -11 -10 -29 -19 -16 -16 -13 -9 -10 -11 -15 -14 -21 -28 -26 -48 -36 -1 -0 -0 -0 -1 -7 -9 -10 -7 -8 -11 -15 -10 -28 -10 -7 -4 -0 -0
-113 -140 -178 -119 -87 -57 -34 -41 -37 -31 -22 -24 -22 -19 -20 -20 -13 -18 -19 -19 -21 -19 -15 -11 -0 -0 -0 -0 -0 -0 -0 -3 -9 -11 -14 -19 -32 -13 -33 -14 -0 -0 -0
-143 -136 -162 -142 -106 -96 -59 -44 -44 -27 -25 -27 -24 -17 -20 -33 -16 -16 -16 -10 -11 -16 -23 -18 -1 -0 -0 -0 -0 -0 -1 -5 -6 -5 -10 -16 -13 -35 -11 -19 -0 -0 -0
-103 -134 -156 -152 -118 -99 -80 -46 -36 -25 -14 -13 -16 -20 -25 -31 -17 -15 -12 -11 -17 -15 -13 -15 -7 -0 -0 -0 -12 -4 -2 -2 -2 -5 -7 -8 -9 -17 -25 -31 -27 -16 -0
-84 -92 -145 -142 -109 -102 -92 -59 -35 -36 -17 -14 -17 -21 -23 -28 -23 -18 -13 -18 -18 -14 -4 -12 -12 -0 -0 -2 -1 -7 -17 -14 -3 -3 -6 -8 -8 -11 -20 -36 -24 -23 -24
-88 -96 -121 -136 -103 -88 -97 -78 -50 -22 -22 -17 -21 -22 -25 -24 -21 -18 -22 -16 -23 -16 -13 -15 -12 -6 -5 -9 -2 -1 -0 -1 -12 -10 -10 -11 -14 -5 -8 -16 -25 -33 -23
-92 -93 -73 -124 -92 -99 -69 -47 -37 -33 -22 -27 -27 -21 -21 -25 -23 -26 -25 -17 -21 -18 -9 -15 -16 -13 -2 -5 -42 -20 -3 -2 -10 -31 -28 -17 -18 -10 -9 -8 -25 -27 -35
-118 -123 -108 -140 -160 -80 -65 -49 -33 -30 -33 -19 -19 -12 -14 -21 -16 -22 -25 -24 -21 -7 -6 -16 -9 -10 -4 -2 -6 -30 -19 -21 -0 -51 -82 -85 -31 -29 -21 -22 -23 -32 -43
-193 -132 -135 -129 -147 -147 -126 -109 -22 -13 -21 -12 -10 -15 -17 -13 -19 -16 -14 -20 -21 -11 -9 -12 -12 -12 -7 -5 -5 -5 -10 -1 -6 -0 -29 -2 -38 -41 -34 -43 -40 -44 -44
-213 -191 -140 -128 -113 -131 -90 -79 -6 -5 -6 -54 -33 -9 -10 -11 -13 -17 -17 -15 -23 -12 -13 -12 -12 -5 -6 -8 -6 -3 -0 -2 -4 -2 -0 -15 -74 -75 -129 -60 -84 -89 -65
Wind_Speed
15 14 13 11 10 10 12 14 15 14 15 15 15 14 14 12 12 11 12 10 11 10 11 11 10 9 7 10 9 6 8 8 10 11 11 10 9 9 9 6 4 9 9
15 13 12 11 12 12 12 12 14 14 13 14 13 14 13 12 12 12 12 10 10 12 14 12 11 9 8 7 8 10 7 7 8 8 8 7 7 8 7 6 7 7 8
15 13 12 10 14 14 12 11 13 14 13 13 13 12 13 14 13 13 12 14 12 12 14 13 11 11 9 9 10 9 8 6 7 5 4 4 6 6 6 5 4 8 7
15 11 12 11 12 15 15 12 12 14 14 13 12 12 15 15 14 13 12 14 11 11 10 11 12 12 13 17 13 9 8 7 7 2 4 4 4 5 5 7 6 6 6
13 12 11 13 14 16 15 14 12 12 14 13 12 12 13 15 16 13 12 11 8 9 7 6 8 10 12 10 12 11 8 9 6 3 4 6 7 6 4 4 2 3 5
14 12 14 15 16 16 15 17 16 15 15 14 13 12 13 15 13 12 10 7 6 9 8 7 7 7 8 7 9 8 7 6 5 2 4 5 6 5 3 3 2 1 3
12 12 14 15 13 16 16 18 18 18 16 15 16 14 16 17 14 13 15 12 10 11 10 10 7 6 9 5 5 7 7 4 3 5 3 1 3 2 3 1 1 1 1
14 12 14 15 11 14 17 19 20 22 16 16 17 16 17 18 16 16 15 16 16 15 14 14 13 9 11 12 9 8 11 8 3 1 3 1 2 3 2 2 1 3 4
14 10 11 11 10 15 17 20 23 24 20 18 19 19 19 19 18 18 17 17 19 16 14 14 15 12 13 15 13 13 11 13 9 5 nan 2 nan 3 3 3 4 5 7
15 10 8 8 8 10 13 18 22 22 21 17 20 23 19 16 17 19 13 15 18 17 14 13 11 12 9 12 15 16 13 10 6 5 3 3 nan 4 5 5 6 8 8
14 13 9 9 9 7 9 13 18 19 18 15 16 22 17 14 13 11 8 10 17 16 16 9 9 10 11 9 12 14 15 10 5 5 1 2 nan 7 7 9 9 10 9
17 16 12 10 11 7 5 9 14 14 13 12 13 17 17 16 14 9 8 6 15 16 13 9 8 8 11 9 7 10 6 8 4 5 4 7 10 9 9 10 10 10 10
18 12 13 11 9 8 4 6 7 8 10 10 13 11 13 13 13 11 9 7 9 12 8 11 7 5 6 7 7 6 5 6 4 4 5 9 8 10 10 10 10 12 11
18 16 14 12 9 8 2 3 9 8 7 8 8 8 9 10 10 12 9 9 11 5 8 8 5 6 6 4 8 7 8 4 5 5 4 9 8 8 12 11 12 10 11
15 14 12 10 8 7 2 0 4 7 7 6 6 7 7 9 9 11 10 10 7 4 1 4 5 5 4 5 5 6 7 7 6 4 5 11 10 9 11 13 12 11 10
8 11 11 11 6 6 2 2 3 5 5 3 4 5 7 8 7 9 9 10 12 7 3 6 5 6 5 5 6 7 7 4 5 3 3 4 10 10 12 12 12 11 11
7 8 9 8 8 5 4 3 5 3 4 2 3 6 6 7 7 8 7 7 11 17 6 7 7 6 7 6 8 6 5 5 3 3 3 3 5 13 14 14 12 11 13
8 9 7 8 8 4 4 5 6 5 3 2 2 4 7 7 7 8 4 4 6 8 10 6 4 5 6 6 6 5 5 4 5 3 3 3 3 3 11 12 13 13 13
14 10 8 5 6 4 5 6 5 6 5 4 2 2 6 6 6 6 6 8 7 5 8 8 8 3 6 4 4 6 5 5 5 4 4 3 1 2 2 9 9 11 14
10 11 11 7 3 6 8 10 9 8 8 6 4 2 4 3 6 4 2 3 4 5 7 8 8 7 3 3 1 4 6 6 7 4 3 1 2 2 4 4 5 6 11
11 10 9 9 8 10 11 10 9 9 9 7 7 2 2 4 5 6 3 4 3 3 3 5 5 5 4 5 3 4 5 7 8 7 4 2 3 4 5 6 5 4 6
13 10 8 9 9 8 12 14 12 12 12 10 10 8 6 4 8 8 7 5 6 3 1 2 4 2 4 4 1 2 5 7 6 6 6 5 6 3 5 7 8 8 5
16 10 11 9 12 12 14 17 16 16 18 15 10 9 7 6 8 10 9 7 8 7 5 2 3 3 4 7 5 2 6 6 4 8 7 6 4 5 5 6 7 7 7
18 15 15 20 17 18 21 21 16 14 14 12 10 8 9 6 8 10 11 11 10 10 8 7 6 4 1 5 7 7 4 4 6 7 9 6 6 7 4 7 6 6 7
17 15 20 23 27 27 34 37 21 16 19 16 14 9 9 9 5 10 13 15 13 12 11 11 9 7 4 3 5 10 8 7 7 7 5 11 10 8 5 8 8 10 7
16 20 26 27 30 31 33 41 21 20 23 17 15 13 9 8 6 7 12 15 12 16 15 13 11 8 5 5 8 8 8 8 10 6 7 11 5 9 7 6 6 8 11
Wind_Direction
27 35 33 17 7 351 351 3 10 8 10 13 13 10 6 352 336 330 335 314 305 305 298 294 286 267 274 302 305 295 294 286 251 251 247 245 239 234 237 240 317 272 272
354 13 25 5 4 348 349 352 359 6 5 7 4 5 5 355 340 332 336 326 306 310 315 306 293 269 265 273 271 264 251 250 252 247 261 250 239 230 218 208 218 257 271
348 357 10 9 9 8 4 359 358 1 2 360 359 2 4 355 343 334 334 338 324 302 308 312 292 280 269 291 284 274 268 241 235 261 255 223 214 226 224 220 240 251 260
349 352 355 6 9 7 7 3 360 3 5 360 358 4 4 1 353 341 328 322 310 310 309 309 310 294 285 298 303 277 281 269 255 258 175 190 241 222 218 232 214 235 235
349 353 342 355 1 8 10 11 15 7 8 4 3 4 1 2 353 342 343 337 318 332 339 324 302 295 297 285 280 292 285 277 272 239 196 211 183 211 201 245 246 208 173
347 354 343 332 349 4 12 18 19 14 14 13 17 17 14 9 8 8 10 5 21 21 12 6 343 333 306 316 308 323 321 297 286 215 225 230 179 196 194 172 210 127 195
354 1 349 339 348 2 12 11 16 15 13 17 24 33 32 32 32 32 34 46 36 39 44 42 44 19 37 30 15 22 5 339 277 235 229 305 187 169 154 141 143 133 89
350 9 350 341 349 4 14 10 18 15 13 24 35 38 38 35 40 30 40 49 49 45 53 60 69 58 49 39 39 34 37 7 336 226 216 319 256 126 81 103 70 60 40
356 5 6 355 5 8 19 10 15 19 34 40 42 39 44 46 42 44 49 53 63 62 57 58 62 66 58 40 41 45 52 56 62 69 nan 145 nan 62 25 67 42 43 26
351 3 13 358 1 14 21 16 14 22 39 48 51 41 47 42 50 49 53 69 73 75 66 57 66 71 66 54 57 50 58 67 56 31 78 102 nan 47 31 46 54 30 25
350 4 5 354 359 16 25 17 18 32 41 52 49 39 52 50 47 48 36 82 74 74 65 52 72 63 70 66 56 51 55 74 74 63 121 333 nan 34 26 42 30 39 26
354 358 354 352 353 358 34 27 24 37 43 55 50 42 49 49 41 42 20 90 91 73 65 61 51 44 55 67 53 51 64 61 101 72 72 15 35 38 34 27 25 31 28
351 348 356 349 349 358 11 27 39 42 47 61 57 40 49 49 44 43 54 14 44 85 52 54 41 32 34 57 72 56 78 61 63 67 32 16 23 36 30 36 39 19 35
351 356 354 351 347 1 314 27 35 33 41 55 58 45 48 49 41 43 48 56 33 50 52 46 36 32 32 53 47 61 60 48 53 64 15 30 43 41 40 42 36 42 34
350 353 353 356 343 350 329 253 10 24 26 57 66 51 55 54 53 38 55 46 30 47 74 49 49 50 48 42 61 61 65 73 60 39 57 17 28 23 31 42 43 44 39
358 349 339 3 348 343 335 300 301 343 11 28 88 68 58 75 60 52 47 38 33 11 188 137 101 70 70 71 64 67 71 60 84 54 44 21 34 35 30 30 36 41 36
320 315 334 353 342 333 359 276 260 279 337 12 69 68 45 64 56 64 64 45 42 44 79 89 74 71 82 73 70 66 75 68 60 0 24 49 14 31 31 16 20 20 26
309 307 269 313 344 316 304 270 242 223 222 274 29 78 65 47 60 48 60 44 25 49 55 48 54 24 45 54 41 48 56 59 48 34 40 20 27 42 11 31 24 17 27
310 301 300 310 337 316 263 236 218 224 223 234 261 65 66 56 39 62 49 59 62 64 66 40 39 62 47 32 39 45 43 65 62 28 37 66 24 17 282 318 19 19 21
321 317 317 297 317 283 250 233 219 218 216 230 265 295 37 42 33 10 25 24 51 61 52 42 41 30 54 53 84 46 28 33 46 40 49 354 287 307 286 273 293 326 8
320 309 332 310 292 272 256 237 219 217 220 232 243 251 295 326 344 330 298 320 348 69 28 35 54 40 36 63 68 34 20 19 31 38 29 10 351 336 319 298 285 273 305
356 343 334 334 313 288 258 249 215 216 218 221 228 247 271 299 310 305 302 293 295 250 224 351 19 19 337 344 208 61 5 346 0 1 344 353 22 340 341 336 327 327 315
23 338 321 286 301 297 278 254 242 226 222 224 232 246 273 297 292 288 301 284 278 271 244 263 320 355 293 304 320 305 356 353 301 311 324 310 323 327 331 333 337 332 338
19 350 333 320 302 286 279 265 251 234 236 230 229 234 248 262 275 289 293 290 285 258 265 256 258 259 300 304 309 355 359 297 306 314 299 261 279 290 301 306 320 317 318
353 339 339 327 303 288 266 255 232 225 220 218 228 223 233 256 274 282 281 283 282 257 252 249 252 256 275 283 301 293 345 354 326 332 319 288 303 307 316 312 316 295 288
339 337 337 323 311 295 275 265 238 215 217 219 224 228 237 258 267 273 293 285 275 251 248 254 253 248 262 298 302 316 328 314 311 333 343 325 262 276 244 320 360 300 285